Year,Month,Day,Hour,Minute,Value (Times are PST for windgust in km/hr)
2016,02,05,00,00,22.50
2016,02,05,00,01,25.70
2016,02,05,00,02,25.70
2016,02,05,00,03,25.70
2016,02,05,00,04,19.30
2016,02,05,00,05,17.70
2016,02,05,00,09,16.10
2016,02,05,00,10,30.60
2016,02,05,00,11,29.00
2016,02,05,00,12,25.70
2016,02,05,00,13,14.50
2016,02,05,00,14,14.50
2016,02,05,00,15,19.30
2016,02,05,00,16,14.50
2016,02,05,00,17,17.70
2016,02,05,00,18,17.70
2016,02,05,00,19,12.90
2016,02,05,00,20,14.50
2016,02,05,00,21,14.50
2016,02,05,00,22,20.90
2016,02,05,00,23,25.70
2016,02,05,00,24,17.70
2016,02,05,00,25,17.70
2016,02,05,00,26,19.30
2016,02,05,12,26,6.40
2016,02,05,12,27,4.80
2016,02,05,12,28,4.80
2016,02,05,12,29,6.40
2016,02,05,12,30,8.10
2016,02,05,12,31,6.40
2016,02,05,12,32,6.40
2016,02,05,12,33,3.20
2016,02,05,12,34,1.60
2016,02,05,12,35,3.20
2016,02,05,12,36,4.80
2016,02,05,12,37,4.80
2016,02,05,12,38,3.20
2016,02,05,12,39,4.80
2016,02,05,12,40,4.80
2016,02,05,12,41,4.80
2016,02,05,12,42,6.40
2016,02,05,12,43,4.80
2016,02,05,12,44,4.80
2016,02,05,12,45,3.20
2016,02,05,12,46,4.80
2016,02,05,12,47,6.40
2016,02,05,12,48,6.40
2016,02,05,12,49,3.20
2016,02,05,12,50,3.20
2016,02,05,12,51,8.10
2016,02,05,12,52,8.10
2016,02,05,12,53,8.10
2016,02,05,12,54,6.40
2016,02,05,12,55,6.40
2016,02,05,12,56,6.40
2016,02,05,12,57,9.60
2016,02,05,12,58,8.10
2016,02,05,12,59,4.80
2016,02,05,13,01,3.20
2016,02,05,13,02,8.10
2016,02,05,13,03,6.40
2016,02,05,13,04,9.60
2016,02,05,13,05,6.40
2016,02,05,13,06,1.60
2016,02,05,13,07,1.60
2016,02,05,13,08,3.20
2016,02,05,13,09,1.60
2016,02,05,13,10,1.60
2016,02,05,13,11,6.40
2016,02,05,13,12,11.30
2016,02,05,13,13,11.30
2016,02,05,13,14,4.80
2016,02,05,13,15,3.20
2016,02,05,13,16,6.40
2016,02,05,13,17,4.80
2016,02,05,13,18,4.80
2016,02,05,13,19,4.80
2016,02,05,13,20,3.20
2016,02,05,13,21,1.60
2016,02,05,13,22,1.60
2016,02,05,13,23,4.80
2016,02,05,13,24,4.80
2016,02,05,13,25,8.10
2016,02,05,13,26,6.40
2016,02,05,13,27,8.10
2016,02,05,13,28,8.10
2016,02,05,13,29,9.60
2016,02,05,13,30,8.10
2016,02,05,13,31,6.40
2016,02,05,13,32,11.30
2016,02,05,13,33,9.60
2016,02,05,13,34,3.20
2016,02,05,13,35,3.20
2016,02,05,13,36,3.20
2016,02,05,13,37,3.20
2016,02,05,13,38,3.20
2016,02,05,13,39,1.60
2016,02,05,13,40,1.60
2016,02,05,13,41,4.80
2016,02,05,13,42,4.80
2016,02,05,13,43,1.60
2016,02,05,13,44,3.20
2016,02,05,13,45,4.80
2016,02,05,13,46,3.20
2016,02,05,13,47,14.50
2016,02,05,13,48,24.20
2016,02,05,13,49,17.70
2016,02,05,13,50,20.90
2016,02,05,13,51,27.40
2016,02,05,13,52,35.40
2016,02,05,13,53,29.00
2016,02,05,13,54,27.40
2016,02,05,13,55,33.80
2016,02,05,13,56,29.00
2016,02,05,13,57,35.40
2016,02,05,13,58,51.50
2016,02,05,13,59,37.00
2016,02,05,14,00,32.20
2016,02,05,14,01,35.40
2016,02,05,14,02,29.00
2016,02,05,14,03,29.00
2016,02,05,14,04,24.20
2016,02,05,14,05,49.90
2016,02,05,14,06,37.00
2016,02,05,14,07,35.40
2016,02,05,14,08,38.60
2016,02,05,14,09,38.60
2016,02,05,14,10,35.40
2016,02,05,14,11,29.00
2016,02,05,14,12,37.00
2016,02,05,14,13,29.00
2016,02,05,14,14,38.60
2016,02,05,14,15,32.20
2016,02,05,14,16,33.80
2016,02,05,14,17,25.70
2016,02,05,14,18,33.80
2016,02,05,14,19,35.40
2016,02,05,14,20,29.00
2016,02,05,14,21,51.50
2016,02,05,14,22,37.00
2016,02,05,14,23,45.10
2016,02,05,14,24,32.20
2016,02,05,14,28,8.10
2016,02,05,14,29,6.40
2016,02,05,14,30,20.90
2016,02,05,14,31,16.10
2016,02,05,14,32,4.80
2016,02,05,14,33,3.20
2016,02,05,14,34,12.90
2016,02,05,14,35,12.90
2016,02,05,14,36,11.30
2016,02,05,14,37,8.10
2016,02,05,14,38,11.30
2016,02,05,14,39,11.30
2016,02,05,14,40,19.30
2016,02,05,14,41,19.30
2016,02,05,14,42,19.30
2016,02,05,14,43,9.60
2016,02,05,14,44,11.30
2016,02,05,14,45,17.70
2016,02,05,14,46,11.30
2016,02,05,14,47,14.50
2016,02,05,14,48,17.70
2016,02,05,14,49,20.90
2016,02,05,14,50,19.30
2016,02,05,14,51,22.50
2016,02,05,14,52,24.20
2016,02,05,14,53,20.90
2016,02,05,14,54,20.90
2016,02,05,14,55,20.90
2016,02,05,14,56,24.20
2016,02,05,14,57,12.90
2016,02,05,14,58,17.70
2016,02,05,14,59,35.40
2016,02,05,15,00,24.20
2016,02,05,15,01,25.70
2016,02,05,15,02,27.40
2016,02,05,15,03,30.60
2016,02,05,15,04,16.10
2016,02,05,15,05,24.20
2016,02,05,15,06,32.20
2016,02,05,15,07,30.60
2016,02,05,15,08,27.40
2016,02,05,15,09,24.20
2016,02,05,15,10,14.50
2016,02,05,15,11,14.50
2016,02,05,15,12,20.90
2016,02,05,15,13,11.30
2016,02,05,15,14,12.90
2016,02,05,15,15,8.10
2016,02,05,15,16,6.40
2016,02,05,15,17,3.20
2016,02,05,15,18,8.10
2016,02,05,15,19,9.60
2016,02,05,15,20,12.90
2016,02,05,15,21,19.30
2016,02,05,15,22,17.70
2016,02,05,15,23,17.70
2016,02,05,15,24,19.30
2016,02,05,15,25,19.30
2016,02,05,15,26,24.20
2016,02,05,15,27,17.70
2016,02,05,15,28,17.70
2016,02,05,15,29,19.30
2016,02,05,15,30,16.10
2016,02,05,15,31,22.50
2016,02,05,15,32,25.70
2016,02,05,15,33,30.60
2016,02,05,15,34,24.20
2016,02,05,15,35,37.00
2016,02,05,15,36,30.60
2016,02,05,15,37,27.40
2016,02,05,15,38,30.60
2016,02,05,15,39,22.50
2016,02,05,15,40,30.60
2016,02,05,15,41,32.20
2016,02,05,15,42,25.70
2016,02,05,15,43,29.00
2016,02,05,15,44,35.40
2016,02,05,15,45,25.70
2016,02,05,15,46,46.70
2016,02,05,15,47,46.70
2016,02,05,15,48,29.00
2016,02,05,15,49,35.40
2016,02,05,15,50,43.50
2016,02,05,15,51,38.60
2016,02,05,15,52,41.80
2016,02,05,15,53,38.60
2016,02,05,15,54,27.40
2016,02,05,15,55,25.70
2016,02,05,15,56,38.60
2016,02,05,15,57,30.60
2016,02,05,15,58,29.00
2016,02,05,15,59,24.20
2016,02,05,16,00,22.50
2016,02,05,16,01,29.00
2016,02,05,16,02,37.00
2016,02,05,16,03,29.00
2016,02,05,16,04,29.00
2016,02,05,16,05,22.50
2016,02,05,16,06,29.00
2016,02,05,16,07,35.40
2016,02,05,16,08,25.70
2016,02,05,16,09,22.50
2016,02,05,16,10,27.40
2016,02,05,16,11,30.60
2016,02,05,16,12,22.50
2016,02,05,16,13,24.20
2016,02,05,16,14,27.40
2016,02,05,16,15,29.00
2016,02,05,16,16,25.70
2016,02,05,16,17,24.20
2016,02,05,16,18,32.20
2016,02,05,16,19,33.80
2016,02,05,16,20,29.00
2016,02,05,16,21,30.60
2016,02,05,16,22,30.60
2016,02,05,16,23,37.00
2016,02,05,16,24,32.20
2016,02,05,16,25,27.40
2016,02,05,16,26,41.80
2016,02,05,16,27,22.50
2016,02,05,16,28,17.70
2016,02,05,16,29,29.00
2016,02,05,16,30,30.60
2016,02,05,16,31,25.70
2016,02,05,16,32,17.70
2016,02,05,16,33,14.50
2016,02,05,16,34,17.70
2016,02,05,16,35,16.10
2016,02,05,16,36,19.30
2016,02,05,16,37,17.70
2016,02,05,16,38,16.10
2016,02,05,16,39,16.10
2016,02,05,16,40,12.90
2016,02,05,16,41,12.90
2016,02,05,16,42,14.50
2016,02,05,16,43,12.90
2016,02,05,16,44,4.80
2016,02,05,16,45,1.60
2016,02,05,16,46,4.80
2016,02,05,16,47,11.30
2016,02,05,16,48,6.40
2016,02,05,16,49,3.20
2016,02,05,16,50,1.60
2016,02,05,16,51,1.60
2016,02,05,16,52,1.60
2016,02,05,16,53,1.60
2016,02,05,16,54,1.60
2016,02,05,16,55,1.60
2016,02,05,16,57,3.20
2016,02,05,16,58,3.20
2016,02,05,16,59,1.60
2016,02,05,17,00,1.60
2016,02,05,17,01,3.20
2016,02,05,17,02,9.60
2016,02,05,17,03,6.40
2016,02,05,17,04,8.10
2016,02,05,17,05,14.50
2016,02,05,17,06,11.30
2016,02,05,17,07,6.40
2016,02,05,17,08,3.20
2016,02,05,17,09,3.20
2016,02,05,17,10,4.80
2016,02,05,17,11,4.80
2016,02,05,17,12,3.20
2016,02,05,17,13,3.20
2016,02,05,17,14,4.80
2016,02,05,17,15,3.20
2016,02,05,17,16,3.20
2016,02,05,17,17,3.20
2016,02,05,17,18,4.80
2016,02,05,17,19,4.80
2016,02,05,17,20,4.80
2016,02,05,17,21,6.40
2016,02,05,17,22,4.80
2016,02,05,17,23,3.20
2016,02,05,17,24,1.60
2016,02,05,17,25,1.60
2016,02,05,17,26,1.60
2016,02,05,17,27,1.60
2016,02,05,17,31,3.20
2016,02,05,17,32,3.20
2016,02,05,17,33,1.60
2016,02,05,17,34,3.20
2016,02,05,17,35,3.20
2016,02,05,17,36,3.20
2016,02,05,17,37,3.20
2016,02,05,17,38,8.10
2016,02,05,17,39,8.10
2016,02,05,17,40,1.60
2016,02,05,17,41,3.20
2016,02,05,17,42,3.20
2016,02,05,17,43,3.20
2016,02,05,17,44,3.20
2016,02,05,17,47,1.60
2016,02,05,17,49,1.60
2016,02,05,17,56,1.60
2016,02,05,17,57,1.60
2016,02,05,17,58,1.60
2016,02,05,18,00,1.60
2016,02,05,18,01,4.80
2016,02,05,18,02,3.20
2016,02,05,18,03,8.10
2016,02,05,18,04,3.20
2016,02,05,18,05,3.20
2016,02,05,18,06,1.60
2016,02,05,18,07,1.60
2016,02,05,18,08,3.20
2016,02,05,18,09,4.80
2016,02,05,18,10,4.80
2016,02,05,18,11,3.20
2016,02,05,18,12,3.20
2016,02,05,18,13,1.60
2016,02,05,18,14,8.10
2016,02,05,18,15,4.80
2016,02,05,18,16,6.40
2016,02,05,18,17,3.20
2016,02,05,18,18,3.20
2016,02,05,18,20,1.60
2016,02,05,18,21,1.60
2016,02,05,18,22,1.60
2016,02,05,18,23,1.60
2016,02,05,18,24,1.60
2016,02,05,18,26,1.60
2016,02,05,18,28,1.60
2016,02,05,18,29,1.60
2016,02,05,18,30,3.20
2016,02,05,18,31,3.20
2016,02,05,18,32,3.20
2016,02,05,18,33,3.20
2016,02,05,18,34,1.60
2016,02,05,18,35,3.20
2016,02,05,18,36,3.20
2016,02,05,18,38,1.60
2016,02,05,18,46,3.20
2016,02,05,18,47,6.40
2016,02,05,18,48,12.90
2016,02,05,18,49,11.30
2016,02,05,18,50,9.60
2016,02,05,18,51,12.90
2016,02,05,18,52,11.30
2016,02,05,18,53,6.40
2016,02,05,18,54,4.80
2016,02,05,18,55,6.40
2016,02,05,18,56,6.40
2016,02,05,18,57,1.60
2016,02,05,18,58,3.20
2016,02,05,18,59,9.60
2016,02,05,19,00,9.60
2016,02,05,19,01,8.10
2016,02,05,19,02,12.90
2016,02,05,19,03,11.30
2016,02,05,19,04,14.50
2016,02,05,19,05,11.30
2016,02,05,19,06,9.60
2016,02,05,19,07,17.70
2016,02,05,19,08,14.50
2016,02,05,19,09,11.30
2016,02,05,19,10,11.30
2016,02,05,19,11,4.80
2016,02,05,19,12,8.10
2016,02,05,19,13,11.30
2016,02,05,19,14,6.40
2016,02,05,19,15,8.10
2016,02,05,19,16,6.40
2016,02,05,19,17,14.50
2016,02,05,19,18,12.90
2016,02,05,19,19,14.50
2016,02,05,19,20,8.10
2016,02,05,19,21,4.80
2016,02,05,19,22,4.80
2016,02,05,19,23,1.60
2016,02,05,19,24,1.60
2016,02,05,19,25,3.20
2016,02,05,19,26,4.80
2016,02,05,19,28,4.80
2016,02,05,19,29,8.10
2016,02,05,19,30,4.80
2016,02,05,19,31,1.60
2016,02,05,19,32,3.20
2016,02,05,19,33,3.20
2016,02,05,19,34,1.60
2016,02,05,19,36,1.60
2016,02,05,19,37,6.40
2016,02,05,19,38,8.10
2016,02,05,19,39,6.40
2016,02,05,19,40,4.80
2016,02,05,19,41,4.80
2016,02,05,19,42,1.60
2016,02,05,19,43,3.20
2016,02,05,19,44,3.20
2016,02,05,19,45,3.20
2016,02,05,19,46,3.20
2016,02,05,19,47,3.20
2016,02,05,19,48,3.20
2016,02,05,19,49,1.60
2016,02,05,19,51,1.60
2016,02,05,19,52,1.60
2016,02,05,19,53,1.60
2016,02,05,19,55,1.60
2016,02,05,19,58,3.20
2016,02,05,19,59,1.60
2016,02,05,20,02,1.60
2016,02,05,20,03,1.60
2016,02,05,20,08,1.60
2016,02,05,20,09,3.20
2016,02,05,20,10,4.80
2016,02,05,20,11,4.80
2016,02,05,20,12,1.60
2016,02,05,20,13,1.60
2016,02,05,20,20,1.60
2016,02,05,20,21,3.20
2016,02,05,20,22,4.80
2016,02,05,20,23,4.80
2016,02,05,20,24,3.20
2016,02,05,20,25,1.60
2016,02,05,20,26,3.20
2016,02,05,20,27,1.60
2016,02,05,20,34,1.60
2016,02,05,20,35,3.20
2016,02,05,20,36,1.60
2016,02,05,20,37,3.20
2016,02,05,20,38,1.60
2016,02,05,20,39,3.20
2016,02,05,20,40,3.20
2016,02,05,20,41,3.20
2016,02,05,20,42,4.80
2016,02,05,20,43,1.60
2016,02,05,20,44,1.60
2016,02,05,20,46,1.60
2016,02,05,20,48,1.60
2016,02,05,20,49,4.80
2016,02,05,20,50,3.20
2016,02,05,20,52,3.20
2016,02,05,20,53,1.60
2016,02,05,20,54,3.20
2016,02,05,20,55,3.20
2016,02,05,20,56,4.80
2016,02,05,20,57,4.80
2016,02,05,20,58,3.20
2016,02,05,20,59,3.20
2016,02,05,21,00,3.20
2016,02,05,21,01,3.20
2016,02,05,21,02,3.20
2016,02,05,21,03,4.80
2016,02,05,21,04,1.60
2016,02,05,21,10,1.60
2016,02,05,21,19,1.60
2016,02,05,21,20,3.20
2016,02,05,21,21,1.60
2016,02,05,21,22,1.60
2016,02,05,21,27,1.60
2016,02,05,21,28,4.80
2016,02,05,21,29,8.10
2016,02,05,21,30,17.70
2016,02,05,21,31,16.10
2016,02,05,21,32,11.30
2016,02,05,21,33,6.40
2016,02,05,21,34,6.40
2016,02,05,21,35,6.40
2016,02,05,21,36,8.10
2016,02,05,21,37,6.40
2016,02,05,21,38,3.20
2016,02,05,21,39,6.40
2016,02,05,21,40,4.80
2016,02,05,21,41,3.20
2016,02,05,21,42,6.40
2016,02,05,21,43,4.80
2016,02,05,21,44,3.20
2016,02,05,21,45,14.50
2016,02,05,21,46,12.90
2016,02,05,21,47,9.60
2016,02,05,21,48,4.80
2016,02,05,21,49,1.60
2016,02,05,21,50,1.60
2016,02,05,21,51,1.60
2016,02,05,21,53,3.20
2016,02,05,21,54,1.60
2016,02,05,21,56,1.60
2016,02,05,21,57,1.60
2016,02,05,21,58,1.60
2016,02,05,21,59,4.80
2016,02,05,22,00,1.60
2016,02,05,22,01,3.20
2016,02,05,22,02,1.60
2016,02,05,22,04,1.60
2016,02,05,22,05,1.60
2016,02,05,22,06,1.60
2016,02,05,22,07,3.20
2016,02,05,22,08,3.20
2016,02,05,22,09,3.20
2016,02,05,22,10,4.80
2016,02,05,22,11,4.80
2016,02,05,22,12,4.80
2016,02,05,22,13,4.80
2016,02,05,22,14,4.80
2016,02,05,22,15,4.80
2016,02,05,22,16,4.80
2016,02,05,22,17,6.40
2016,02,05,22,18,3.20
2016,02,05,22,19,4.80
2016,02,05,22,20,14.50
2016,02,05,22,21,11.30
2016,02,05,22,22,3.20
2016,02,05,22,23,3.20
2016,02,05,22,24,3.20
2016,02,05,22,25,3.20
2016,02,05,22,26,4.80
2016,02,05,22,27,3.20
2016,02,05,22,28,1.60
2016,02,05,22,29,1.60
2016,02,05,22,30,3.20
2016,02,05,22,31,3.20
2016,02,05,22,32,1.60
2016,02,05,22,33,3.20
2016,02,05,22,34,1.60
2016,02,05,22,35,1.60
2016,02,05,22,36,4.80
2016,02,05,22,37,4.80
2016,02,05,22,38,3.20
2016,02,05,22,39,6.40
2016,02,05,22,40,3.20
2016,02,05,22,41,4.80
2016,02,05,22,42,9.60
2016,02,05,22,43,11.30
2016,02,05,22,44,8.10
2016,02,05,22,45,4.80
2016,02,05,22,48,1.60
2016,02,05,22,49,3.20
2016,02,05,22,50,1.60
2016,02,05,22,52,3.20
2016,02,05,22,53,3.20
2016,02,05,22,54,4.80
2016,02,05,22,55,4.80
2016,02,05,22,56,1.60
2016,02,05,22,57,1.60
2016,02,05,22,58,3.20
2016,02,05,22,59,1.60
2016,02,05,23,07,1.60
2016,02,05,23,10,1.60
2016,02,05,23,11,1.60
2016,02,05,23,17,1.60
2016,02,05,23,18,1.60
2016,02,05,23,19,1.60
2016,02,05,23,20,1.60
2016,02,05,23,21,3.20
2016,02,05,23,22,3.20
2016,02,05,23,23,1.60
2016,02,05,23,24,1.60
2016,02,05,23,31,1.60
2016,02,05,23,32,1.60
2016,02,05,23,34,1.60
2016,02,05,23,36,1.60
2016,02,05,23,37,1.60
2016,02,05,23,38,3.20
2016,02,05,23,39,4.80
2016,02,05,23,40,4.80
2016,02,05,23,41,4.80
2016,02,05,23,42,1.60
2016,02,05,23,45,1.60
2016,02,05,23,46,3.20
2016,02,05,23,47,3.20
2016,02,05,23,48,1.60
2016,02,05,23,58,3.20
2016,02,05,23,59,3.20
